Weather in Bath

United Kingdom     51°22′45″N   2°22′03″W
temp.,
°C
wind,
m/s
gust,
m/s
humid.,
%
clouds,
%
prec.,
mm/h
press.,
hPa
HPBL,
m
14 april, wed
wed1401:00+2nw00885 0.0 103310
04:00+1nne118829 0.0 103310
07:00+2n229031 0.0 103345
10:00+7nne337832 0.0 1034472
13:00+9ene447183 0.4 10331116
16:00+10ne456876 0.4 10321222
19:00+7ene47761 0.6 1032254
22:00+2e22885 0.0 103422
15 april, thu
thu1501:000ene22895 0.0 103518
04:00−1ne23919 0.0 103535
07:00−1ne24905 0.0 1035101
10:00+5ne45645 0.0 1035759
13:00+9ene345669 0.0 10331533
16:00+8ne455995 0.1 10321339
19:00+7ne477797 0.2 1032226
22:00+2ene379319 0.0 1033127
16 april, fri
fri1601:000ne22944 0.0 103335
04:00−2ne22951 0.0 103329
07:00−1ne23945 0.0 103355
10:00+6ne34690 0.0 1033568
13:00+9ene33578 0.0 10311541
16:00+10ene335387 0.0 10301802
19:00+8ene227037 0.1 103026
22:00+3ene22795 0.0 103114
17 april, sat
sat1701:000e22905 0.0 103113
04:000e11870 0.0 103010
07:000ene118457 0.0 103013
10:00+7e336759 0.0 1030497
13:00+10e115823 0.0 10291215
16:00+11ese115630 0.0 10271371
19:00+9nw0072100 0.0 102716
22:00+5ese1177100 0.0 102710
18 april, sun
sun1801:00+3s1186100 0.0 102710
04:00+3sse2290100 0.0 102610
07:00+3s228798 0.0 102628
10:00+9s3469100 0.0 1026511
13:00+12ssw446375 0.0 10251180
16:00+12ssw4463100 0.0 10241292
19:00+10sw368082 0.0 1024203
22:00+5ssw339296 0.0 102438